DECAYED

SL-4 R/B, 62431 (Decayed)

Orbit data source: Space-Track

SL-4 R/B, 62431 was space debris in LEO originally from a launch on Wed, 25 Dec 2024 UTC launched from the Tyuratam Missile And Space Complex (TTMTR). Debris objects in space refer to the collection of defunct objects orbiting the Earth. Examples of debris include non-operational satellites, rocket bodies, and fragments generated from explosions, collisions, or faulty payload assembly.

Loading next visibility...
Identifier
62431, 2024-250B
Orbit
Decayed
Country
Flag of CISCIS
Related business
Manufacturer
TsSKB-Progress
Mission
Decayed spacecraft
Bus & Motor
BLOK-I, Unknown motor
Mass
2,710 kg wet, 2,710 kg dry
Launch date (UTC)
2024-12-25 (1 year ago)
Launch vehicle
Unknown
Launch site
Tyuratam Missile And Space Complex (TTMTR)
Object type
Payload
Rocket body
Debris
Shape & HBR
Cyl, 3.5 m
Radar Cross Section
17.919 m², Large (>1 m²)

Expand to show TLE details & history
Last TLE update: 1 year ago

TLE from 1 year ago
0 SL-4 R/B
1 62431U 24250B   25078.51966810  .15853101  25048-5  24275-3 0  9998
2 62431  97.2410  13.3378 0010685 105.0848  14.8076 16.47995929 13306
Epoch: 2025-03-19T12:28Z
TLE epoch observation values (Epoch: 2025-03-19T12:28:19.323Z)
Latitude
59.39858°
Longitude
-158.71659°
Altitude
148.037 km
Speed
7.827 km/s
True Right ascension
13h 42m 40s
True Declination
59° 14' 01"
Sunlit
Object was in full shadow at epoch
Visualization orbit readout
Latitude
Unknown
Longitude
Unknown
Altitude
Unknown
Speed
Unknown
Apparent Right ascension
Unknown
Apparent Declination
Unknown
Sunlit
N/A
Visualization observer readout
Local Sidereal Time
08:58:01
Azimuth
Unknown
Elevation
Unknown
Doppler factor
Unknown
Orbital elements
Apogee altitude
148.375 km
Perigee altitude
134.442 km
Semi-major axis
6,519.545 km
Eccentricity
0.00107
Inclination
97.241°
RAAN
13.3378°
Arg. of periapsis
105.0848°
True anomaly
14.83893°
Mean anomaly
14.8076°
Eccentric anomaly
14.82326°
Mean motion
4.12304 °/min
Orbital period
87.31 mins
BSTAR
0.00024275
Loading maneuver chart data...
Computing Atmospheric mass density...
Loading historical data...
Loading historical data...
Loading historical data...
Loading historical data...
Loading historical data...
Loading historical data...
Loading historical data...
Other satellites on launch #250 in the year 2024 (2024-12-25 UTC)

Documentation

Showing up to 5 results
|